User: anonymous   Login
Location: Leeds
(37.2390°N, 113.3580°W)
Time: 17:41:27
(UTC-07:00)
Language:

SL-08 RB Rocket - Orbit

View from above orbital plane
View from above orbital plane
View from above satellite
View from above satellite

Ground track
Ground track

The orbit data is extracted from the following two-line orbital elements,

1 26387U 00033D   18021.76936705  .00000118  00000-0  28598-4 0  9993
2 26387  97.9429  85.1254 0026490   4.9606  64.1494 14.68353933939957
Epoch (UTC): 21 January 2018 18:27:53
Eccentricity: 0.0026490
inclination: 97.9429°
perigee height: 647 km
apogee height: 685 km
right ascension of ascending node: 85.1254°
argument of perigee: 4.9606°
revolutions per day: 14.68353933
mean anomaly at epoch: 64.1494°
orbit number at epoch: 93995

The dashed part of the orbit path shows where the satellite is in the earth's shadow,  

DLR